Location: North Runcton
(52.7000°N, 0.4333°E)
Time: 22:17:47
(UTC+00:00)

Cosmos 1975 - Pass Details

Date: 19 May 2025
Orbit: 487 x 506 km, 82.5° (Epoch: 12 June)

Event Time Altitude Azimuth Distance (km) Brightness Sun altitude
Rises 22:43:20 0° 349° (N) 2,577 8.1 -15.7°
Reaches altitude 10° 22:45:27 10° 350° (N) 1,689 6.7 -15.8°
Maximum altitude 22:49:09 84° 78° (ENE) 498 2.5 -15.9°
Enters shadow 22:50:35 35° 165° (SSE) 801 3.1 -16.0°
